TimeCST,TemperatureF,Dew PointF,Humidity,Sea Level PressureIn,VisibilityMPH,Wind Direction,Wind SpeedMPH,Gust SpeedMPH,PrecipitationIn,Events,Conditions,WindDirDegrees,DateUTC
12:53 AM,3.0,-2.0,80,30.15,10.0,Calm,Calm,-,N/A,,Clear,0,2013-03-04 06:53:00
1:53 AM,1.0,-4.0,79,30.16,10.0,Calm,Calm,-,N/A,,Clear,0,2013-03-04 07:53:00
2:53 AM,-0.0,-6.0,76,30.17,10.0,Calm,Calm,-,N/A,,Clear,0,2013-03-04 08:53:00
3:53 AM,3.0,-2.0,80,30.17,10.0,Calm,Calm,-,N/A,,Clear,0,2013-03-04 09:53:00
4:53 AM,5.0,-0.9,76,30.18,10.0,NNE,3.5,-,N/A,,Clear,20,2013-03-04 10:53:00
5:53 AM,7.0,1.9,80,30.18,10.0,Calm,Calm,-,N/A,,Clear,0,2013-03-04 11:53:00
6:53 AM,6.1,-0.0,76,30.18,10.0,Calm,Calm,-,N/A,,Clear,0,2013-03-04 12:53:00
7:53 AM,9.0,3.0,77,30.17,10.0,Calm,Calm,-,N/A,,Clear,0,2013-03-04 13:53:00
8:53 AM,16.0,6.1,65,30.18,10.0,North,3.5,-,N/A,,Clear,10,2013-03-04 14:53:00
9:53 AM,21.0,8.1,57,30.17,10.0,NE,6.9,-,N/A,,Clear,40,2013-03-04 15:53:00
10:53 AM,23.0,10.9,60,30.16,10.0,NE,6.9,-,N/A,,Clear,40,2013-03-04 16:53:00
11:53 AM,27.0,14.0,58,30.14,10.0,NNE,8.1,-,N/A,,Clear,20,2013-03-04 17:53:00
12:53 PM,28.9,19.0,67,30.13,10.0,ESE,9.2,-,N/A,,Partly Cloudy,110,2013-03-04 18:53:00
1:53 PM,28.9,19.0,67,30.11,10.0,East,11.5,-,N/A,,Mostly Cloudy,90,2013-03-04 19:53:00
2:51 PM,30.2,19.4,64,30.06,10.0,East,11.5,-,N/A,,Mostly Cloudy,90,2013-03-04 20:51:00
2:53 PM,30.0,19.0,64,30.11,10.0,East,12.7,-,N/A,,Mostly Cloudy,80,2013-03-04 20:53:00
3:53 PM,28.9,19.0,67,30.11,10.0,East,10.4,-,N/A,,Overcast,80,2013-03-04 21:53:00
4:33 PM,28.4,17.6,64,30.06,10.0,East,10.4,-,N/A,,Overcast,90,2013-03-04 22:33:00
4:53 PM,28.9,19.0,67,30.10,10.0,East,11.5,-,N/A,,Overcast,80,2013-03-04 22:53:00
5:18 PM,28.4,17.6,64,30.06,10.0,East,12.7,-,N/A,,Overcast,80,2013-03-04 23:18:00
5:53 PM,28.0,19.0,69,30.10,10.0,East,12.7,-,N/A,,Overcast,80,2013-03-04 23:53:00
6:53 PM,27.0,19.0,72,30.11,10.0,ENE,6.9,-,N/A,,Overcast,70,2013-03-05 00:53:00
7:53 PM,27.0,19.0,72,30.12,10.0,ENE,9.2,-,N/A,,Overcast,70,2013-03-05 01:53:00
8:53 PM,27.0,19.0,72,30.12,10.0,ENE,9.2,-,N/A,,Overcast,70,2013-03-05 02:53:00
9:53 PM,27.0,19.9,75,30.12,10.0,ENE,6.9,-,N/A,,Overcast,70,2013-03-05 03:53:00
10:53 PM,27.0,21.0,78,30.11,10.0,NE,5.8,-,N/A,,Overcast,50,2013-03-05 04:53:00
11:53 PM,26.1,21.0,81,30.10,10.0,NNE,5.8,-,N/A,,Overcast,30,2013-03-05 05:53:00